• In Lithuania
  • List of Countries
  • For 7 days
  • Water Temperature
  • Satellite Maps
  • Weather Map
  • Weather Widgets
  • user-avatar
    Login

    Hourly Weather Munich

    Today, 21 September, Friday

    Time Temperature Precipitation Wind Pressure Humidity
    00:00 +16°C° 0 mm 2 mps 717 mmHg 81%
    01:00 +16°C° 0 mm 2 mps 717 mmHg 80%
    02:00 +16°C° 0 mm 2 mps 716 mmHg 79%
    03:00 +15°C° 0 mm 2 mps 716 mmHg 77%
    04:00 +15°C° 0 mm 2 mps 716 mmHg 76%
    05:00 +15°C° 0 mm 2 mps 716 mmHg 76%
    06:00 +15°C° 0 mm 2 mps 716 mmHg 75%
    07:00 +16°C° 0 mm 2 mps 715 mmHg 74%
    08:00 +18°C° 0 mm 2 mps 716 mmHg 68%
    09:00 +21°C° 0 mm 2 mps 716 mmHg 62%
    10:00 +25°C° 0 mm 2 mps 716 mmHg 55%
    11:00 +26°C° 0 mm 3 mps 715 mmHg 53%
    12:00 +27°C° 0 mm 3 mps 715 mmHg 50%
    13:00 +28°C° 0 mm 4 mps 715 mmHg 48%
    14:00 +27°C° 0 mm 4 mps 715 mmHg 53%
    15:00 +26°C° 0 mm 4 mps 715 mmHg 57%
    16:00 +25°C° 0 mm 4 mps 714 mmHg 62%
    17:00 +23°C° 0.2 mm 4 mps 715 mmHg 65%
    18:00 +21°C° 0.2 mm 4 mps 715 mmHg 68%
    19:00 +20°C° 0.2 mm 4 mps 716 mmHg 71%
    20:00 +18°C° 0.5 mm 4 mps 716 mmHg 77%
    21:00 +15°C° 0.5 mm 4 mps 717 mmHg 83%
    22:00 +13°C° 0.5 mm 4 mps 718 mmHg 89%
    23:00 +12°C° 0.8 mm 3 mps 718 mmHg 90%

    Tomorrow, 22 September, Saturday

    Time Temperature Precipitation Wind Pressure Humidity
    00:00 +12°C° 0.8 mm 3 mps 718 mmHg 90%
    01:00 +11°C° 0.8 mm 3 mps 719 mmHg 90%
    02:00 +12°C° 0.3 mm 2 mps 719 mmHg 91%
    03:00 +10°C° 0.3 mm 2 mps 719 mmHg 91%
    04:00 +10°C° 0.3 mm 2 mps 720 mmHg 91%
    05:00 +10°C° 0 mm 2 mps 720 mmHg 91%
    06:00 +10°C° 0 mm 2 mps 720 mmHg 90%
    07:00 +10°C° 0 mm 2 mps 720 mmHg 90%
    08:00 +12°C° 0 mm 2 mps 720 mmHg 82%
    09:00 +13°C° 0 mm 2 mps 721 mmHg 75%
    10:00 +15°C° 0 mm 2 mps 721 mmHg 67%
    11:00 +14°C° 0 mm 3 mps 720 mmHg 63%
    12:00 +16°C° 0 mm 3 mps 720 mmHg 60%
    13:00 +17°C° 0 mm 3 mps 720 mmHg 56%
    14:00 +17°C° 0 mm 3 mps 720 mmHg 57%
    15:00 +17°C° 0 mm 3 mps 720 mmHg 58%
    16:00 +17°C° 0 mm 3 mps 720 mmHg 59%
    17:00 +16°C° 0 mm 2 mps 720 mmHg 63%
    18:00 +14°C° 0 mm 1 mps 720 mmHg 67%
    19:00 +13°C° 0 mm 1 mps 720 mmHg 71%
    20:00 +13°C° 0 mm 1 mps 721 mmHg 73%
    21:00 +12°C° 0 mm 1 mps 721 mmHg 74%
    22:00 +12°C° 0 mm 1 mps 721 mmHg 76%
    23:00 +12°C° 0 mm 1 mps 721 mmHg 74%

    Day after tomorrow, 23 September, Sunday

    Time Temperature Precipitation Wind Pressure Humidity
    00:00 +12°C° 0 mm 1 mps 721 mmHg 72%
    01:00 +13°C° 0 mm 1 mps 721 mmHg 71%
    02:00 +12°C° 0 mm 1 mps 721 mmHg 71%
    03:00 +12°C° 0 mm 1 mps 720 mmHg 72%
    04:00 +12°C° 0 mm 1 mps 720 mmHg 73%
    05:00 +12°C° 0.1 mm 1 mps 720 mmHg 75%
    06:00 +13°C° 0.1 mm 1 mps 720 mmHg 77%
    07:00 +13°C° 0.1 mm 1 mps 720 mmHg 80%
    08:00 +13°C° 0.2 mm 2 mps 720 mmHg 81%
    09:00 +14°C° 0.2 mm 2 mps 720 mmHg 82%
    10:00 +14°C° 0.2 mm 3 mps 720 mmHg 84%
    11:00 +17°C° 0 mm 3 mps 720 mmHg 76%
    12:00 +20°C° 0 mm 4 mps 719 mmHg 69%
    13:00 +22°C° 0 mm 4 mps 719 mmHg 61%
    14:00 +23°C° 0 mm 4 mps 718 mmHg 62%
    15:00 +24°C° 0 mm 3 mps 718 mmHg 63%
    16:00 +25°C° 0 mm 3 mps 717 mmHg 65%
    17:00 +23°C° 0 mm 2 mps 716 mmHg 71%
    18:00 +20°C° 0 mm 2 mps 716 mmHg 77%
    19:00 +18°C° 0 mm 2 mps 715 mmHg 83%
    20:00 +18°C° 0 mm 2 mps 715 mmHg 83%
    21:00 +18°C° 0 mm 3 mps 714 mmHg 82%
    22:00 +17°C° 0 mm 3 mps 714 mmHg 82%
    23:00 +18°C° 0.1 mm 4 mps 713 mmHg 81%

    24 September, Monday

    Time Temperature Precipitation Wind Pressure Humidity
    00:00 +18°C° 0.1 mm 4 mps 712 mmHg 80%
    01:00 +18°C° 0.1 mm 4 mps 711 mmHg 79%
    02:00 +17°C° 0.7 mm 5 mps 711 mmHg 81%
    03:00 +17°C° 0.7 mm 7 mps 711 mmHg 82%
    04:00 +17°C° 0.7 mm 8 mps 711 mmHg 84%
    05:00 +16°C° 0.2 mm 9 mps 712 mmHg 80%
    06:00 +13°C° 0.2 mm 10 mps 714 mmHg 75%
    07:00 +12°C° 0.2 mm 12 mps 715 mmHg 71%
    08:00 +11°C° 0.1 mm 10 mps 717 mmHg 70%
    09:00 +10°C° 0.1 mm 9 mps 719 mmHg 70%
    10:00 +10°C° 0.1 mm 8 mps 721 mmHg 69%
    11:00 +10°C° 0.1 mm 7 mps 721 mmHg 69%
    12:00 +10°C° 0.1 mm 6 mps 722 mmHg 68%
    13:00 +10°C° 0.1 mm 5 mps 723 mmHg 68%
    14:00 +10°C° 0.1 mm 5 mps 723 mmHg 68%
    15:00 +10°C° 0.1 mm 5 mps 724 mmHg 68%
    16:00 +11°C° 0.1 mm 4 mps 724 mmHg 67%
    17:00 +10°C° 0.1 mm 4 mps 725 mmHg 69%
    18:00 +9°C° 0.1 mm 3 mps 726 mmHg 71%
    19:00 +8°C° 0.1 mm 3 mps 726 mmHg 72%
    20:00 +8°C° 0.1 mm 3 mps 727 mmHg 74%
    21:00 +7°C° 0.1 mm 2 mps 727 mmHg 75%
    22:00 +6°C° 0.1 mm 2 mps 728 mmHg 77%
    23:00 +6°C° 0 mm 2 mps 728 mmHg 79%

    25 September, Tuesday

    Time Temperature Precipitation Wind Pressure Humidity
    00:00 +5°C° 0 mm 2 mps 728 mmHg 81%
    01:00 +6°C° 0 mm 1 mps 728 mmHg 83%
    02:00 +5°C° 0 mm 1 mps 729 mmHg 85%
    03:00 +5°C° 0 mm 1 mps 729 mmHg 88%
    04:00 +4°C° 0 mm 1 mps 729 mmHg 90%
    05:00 +4°C° 0 mm 1 mps 729 mmHg 89%
    06:00 +4°C° 0 mm 0 mps 730 mmHg 89%
    07:00 +4°C° 0 mm 0 mps 730 mmHg 88%
    08:00 +6°C° 0 mm 0 mps 730 mmHg 79%
    09:00 +9°C° 0 mm 1 mps 730 mmHg 70%
    10:00 +11°C° 0 mm 1 mps 730 mmHg 61%
    11:00 +12°C° 0 mm 1 mps 729 mmHg 56%
    12:00 +13°C° 0 mm 1 mps 729 mmHg 51%
    13:00 +14°C° 0 mm 2 mps 729 mmHg 46%
    14:00 +14°C° 0 mm 2 mps 728 mmHg 47%
    15:00 +14°C° 0 mm 2 mps 728 mmHg 48%
    16:00 +14°C° 0 mm 2 mps 727 mmHg 49%
    17:00 +12°C° 0 mm 2 mps 727 mmHg 57%
    18:00 +9°C° 0 mm 1 mps 727 mmHg 64%
    19:00 +7°C° 0 mm 1 mps 727 mmHg 71%
    20:00 +7°C° 0 mm 1 mps 728 mmHg 73%
    21:00 +6°C° 0 mm 1 mps 728 mmHg 75%
    22:00 +6°C° 0 mm 1 mps 728 mmHg 76%
    23:00 +5°C° 0 mm 1 mps 728 mmHg 76%

    26 September, Wednesday

    Time Temperature Precipitation Wind Pressure Humidity
    00:00 +5°C° 0 mm 1 mps 727 mmHg 77%
    01:00 +4°C° 0 mm 0 mps 727 mmHg 77%
    02:00 +4°C° 0 mm 0 mps 727 mmHg 76%
    03:00 +4°C° 0 mm 0 mps 727 mmHg 75%
    04:00 +3°C° 0 mm 0 mps 727 mmHg 75%
    05:00 +4°C° 0 mm 0 mps 727 mmHg 73%
    06:00 +4°C° 0 mm 0 mps 728 mmHg 71%
    07:00 +5°C° 0 mm 0 mps 728 mmHg 70%
    08:00 +8°C° 0 mm 1 mps 728 mmHg 63%
    09:00 +11°C° 0 mm 1 mps 728 mmHg 57%
    10:00 +13°C° 0 mm 1 mps 728 mmHg 50%
    11:00 +14°C° 0 mm 1 mps 727 mmHg 48%
    12:00 +16°C° 0 mm 2 mps 727 mmHg 46%
    13:00 +17°C° 0 mm 2 mps 727 mmHg 44%
    14:00 +17°C° 0 mm 2 mps 727 mmHg 47%
    15:00 +17°C° 0 mm 2 mps 726 mmHg 50%
    16:00 +16°C° 0 mm 2 mps 726 mmHg 53%
    17:00 +14°C° 0 mm 2 mps 726 mmHg 61%
    18:00 +12°C° 0 mm 2 mps 726 mmHg 70%
    19:00 +10°C° 0 mm 1 mps 726 mmHg 78%
    20:00 +9°C° 0 mm 1 mps 726 mmHg 78%
    21:00 +9°C° 0 mm 1 mps 726 mmHg 79%
    22:00 +8°C° 0 mm 1 mps 726 mmHg 80%
    23:00 +8°C° 0 mm 1 mps 726 mmHg 79%
    Show more